COSMOS 2459 [GLONASS-M] 
1 36400U 10007A   19261.80523321 -.00000025  00000-0  10000-3 0  9996
2 36400  65.7928  37.0179 0024082 354.2131 242.3331  2.13102068 74321
COSMOS 2461 [GLONASS-M] 
1 36401U 10007B   19261.61160507 -.00000026  00000-0  10000-3 0  9990
2 36401  65.7873  36.9961 0008103  80.8645 277.6695  2.13102030 74318
COSMOS 2460 [GLONASS-M] 
1 36402U 10007C   19261.61789825 -.00000026  00000-0  10000-3 0  9991
2 36402  65.7763  36.9585 0002363 129.5152 273.5029  2.13101399 74329
SL-12 R/B(2)            
1 36403U 10007D   19262.09824799 -.00000024  00000-0  00000+0 0  9998
2 36403  65.7856  36.7173 0018473 192.1569 349.8705  2.13314136 74380
SL-12 R/B(AUX MOTOR)    
1 36406U 10007G   19261.50841489 -.00000086  00000-0 -83839-3 0  9995
2 36406  64.9113  22.8760 5565727  45.0046 348.4672  4.22622464 79075
SL-12 R/B(AUX MOTOR)    
1 36407U 10007H   19261.49341962 -.00000100  00000-0 -75289-4 0  9993
2 36407  65.0284   1.5786 5745224  22.9980 354.7914  4.24395479147656
SL-12 DEB               
1 41696U 10007N   19260.54255100  .00000079  00000-0  22645-2 0  9991
2 41696  64.6458  44.5888 5623341  68.1586 341.0687  4.06608668 76057
SL-12 DEB               
1 41697U 10007P   19260.58917161 -.00001979  00000-0 -63133-1 0  9996
2 41697  65.1642  73.1062 5528400  40.5901 349.7374  4.13285970 77230
SL-12 DEB               
1 41698U 10007Q   19260.27894778 -.00000405  00000-0 -20219-2 0  9993
2 41698  64.9072 339.2910 5585343  36.8129 350.9189  4.34554013 80942
SL-12 DEB               
1 41699U 10007R   19261.44063917 -.00000483  00000-0 -30035-2 0  9990
2 41699  64.9022 349.0969 5588511  39.0756 350.2901  4.31327073 80915
SL-12 DEB               
1 41700U 10007S   19260.64306624  .00000023  00000-0  68790-3 0  9997
2 41700  64.9916  54.8841 5637098  42.3796 349.5378  4.10635696 76998
SL-12 DEB               
1 41701U 10007T   19260.66909865 -.00000011  00000-0  27265-4 0  9997
2 41701  65.3194  68.4322 5555566  30.4271 352.5636  4.13536958 77178
SL-12 DEB               
1 41703U 10007V   19258.72564526 -.00000318  00000-0 -13377-2 0  9992
2 41703  64.8994 347.5722 5626276  38.0798 350.6826  4.30086253 68618
SL-12 DEB               
1 43527U 10007Z   19261.44960050 -.00000105  00000-0 -17829-3 0  9994
2 43527  64.8443   6.8529 5746576  27.1084 353.8042  4.17816287 19935
SL-12 DEB               
1 43528U 10007AA  19261.38083110 -.00000353  00000-0 -10664-2 0  9995
2 43528  64.7770   6.5928 5746228  28.0809 353.5688  4.17673790 19930
SL-12 DEB               
1 43606U 10007AH  19260.35082877 -.00000054  00000-0  60386-4 0  9992
2 43606  65.3564   0.0787 5783734  17.6295 356.0949  4.25910539 19867
SL-12 DEB               
1 43607U 10007AJ  19261.97327334  .00016659  00000-0  31268-2 0  9994
2 43607  65.3265 338.5469 5632944  11.6518 357.3482  4.60037582 20775
SL-12 DEB               
1 43608U 10007AK  19258.35770511 -.00000184  00000-0 -14850-2 0  9998
2 43608  65.7599  19.2503 5593886  14.8148 356.4342  4.20072147 18625
SL-12 DEB               
1 43670U 10007AM  19260.37863174  .00003018  00000-0  26711-2 0  9996
2 43670  65.1968   8.2574 5894089  22.2395 355.2244  4.10416100 17650
SL-12 DEB               
1 43686U 10007AL  19261.40292964 -.00000013  00000-0  26468-3 0  9994
2 43686  65.0369  20.5316 5596870  35.6694 351.2014  4.23099915 43586
SL-12 DEB               
1 43918U 10007AP  19260.48573945  .00003328  00000-0  22791-2 0  9995
2 43918  65.0191  14.1327 6000212  26.5225 354.5164  3.97003195 17968